| time (UTC) | temp F | wind direction | speed knots | gust knots | rain 1hr in | rain 24hr in | rain mn in | humidity % | barometer mb |
| 20260509105019 | 49 | 45 | 0.0 | 0.9 | 0.00 | 0.00 | 0.00 | 99 | 1014.2 |
| 20260509104025 | 49 | 176 | 0.9 | 1.7 | 0.00 | 0.00 | 0.00 | 98 | 1014.1 |
| 20260509103029 | 49 | 165 | 0.9 | 1.7 | 0.00 | 0.00 | 0.00 | 97 | 1013.7 |
| 20260509102015 | 49 | 0.0 | 0.0 | 0.00 | 0.00 | 0.00 | 96 | 1013.7 | |
| 20260509101040 | 49 | 0.0 | 1.7 | 0.00 | 0.00 | 0.00 | 97 | 1013.5 | |
| 20260509100026 | 49 | 48 | 0.9 | 2.6 | 0.00 | 0.00 | 0.00 | 97 | 1013.2 |
| 20260509095030 | 49 | 203 | 0.9 | 1.7 | 0.00 | 0.00 | 0.00 | 95 | 1013.4 |
| 20260509094016 | 49 | 173 | 1.7 | 1.7 | 0.00 | 0.00 | 0.00 | 95 | 1013.6 |
| 20260509093021 | 49 | 0.0 | 0.0 | 0.00 | 0.00 | 0.00 | 94 | 1013.7 | |
| 20260509092026 | 49 | 0.0 | 0.0 | 0.00 | 0.00 | 0.00 | 95 | 1013.7 | |
| 20260509091032 | 49 | 0.0 | 0.0 | 0.00 | 0.00 | 0.00 | 94 | 1013.5 | |
| 20260509090019 | 49 | 0.0 | 0.0 | 0.00 | 0.00 | 0.00 | 94 | 1013.7 | |
| 20260509085022 | 49 | 0.0 | 0.0 | 0.00 | 0.00 | 0.00 | 92 | 1013.7 | |
| 20260509084027 | 49 | 0.0 | 0.0 | 0.00 | 0.00 | 0.00 | 92 | 1013.7 | |
| 20260509083032 | 49 | 300 | 0.0 | 0.9 | 0.00 | 0.00 | 0.00 | 93 | 1013.7 |
| 20260509082018 | 49 | 152 | 0.9 | 1.7 | 0.00 | 0.00 | 0.00 | 92 | 1013.7 |
| 20260509081023 | 49 | 158 | 0.0 | 1.7 | 0.00 | 0.00 | 0.00 | 91 | 1013.7 |
| 20260509080028 | 49 | 0.0 | 0.0 | 0.00 | 0.00 | 0.00 | 92 | 1013.7 | |
| 20260509075027 | 49 | 165 | 0.9 | 1.7 | 0.00 | 0.00 | 0.00 | 93 | 1013.8 |
| 20260509074021 | 49 | 0.0 | 0.0 | 0.00 | 0.00 | 0.00 | 93 | 1013.9 | |
| 20260509073024 | 49 | 0.0 | 0.0 | 0.00 | 0.00 | 0.00 | 92 | 1013.9 | |
| 20260509072024 | 49 | 177 | 0.9 | 1.7 | 0.00 | 0.00 | 0.00 | 91 | 1014.0 |
| 20260509071016 | 48 | 210 | 0.9 | 1.7 | 0.00 | 0.00 | 0.00 | 93 | 1014.2 |
| 20260509070022 | 47 | 0.0 | 0.0 | 0.00 | 0.00 | 0.00 | 95 | 1014.2 | |
| 20260509065039 | 48 | 158 | 0.0 | 1.7 | 0.00 | 0.00 | 0.00 | 95 | 1014.2 |
| 20260509064018 | 48 | 248 | 0.0 | 0.9 | 0.00 | 0.00 | 0.00 | 94 | 1014.3 |
| 20260509063016 | 49 | 180 | 0.0 | 1.7 | 0.00 | 0.00 | 0.00 | 94 | 1014.4 |
| 20260509062017 | 49 | 0.0 | 0.0 | 0.00 | 0.00 | 0.00 | 92 | 1014.5 | |
| 20260509061026 | 50 | 293 | 0.0 | 1.7 | 0.00 | 0.00 | 0.00 | 93 | 1014.7 |
| 20260509060031 | 50 | 0.0 | 0.0 | 0.00 | 0.00 | 0.00 | 92 | 1014.4 | |
| 20260509055018 | 50 | 0.0 | 0.0 | 0.00 | 0.00 | 0.00 | 92 | 1014.4 | |
| 20260509054022 | 50 | 180 | 0.9 | 1.7 | 0.00 | 0.00 | 0.00 | 92 | 1014.4 |
| 20260509053028 | 51 | 270 | 0.0 | 0.9 | 0.00 | 0.00 | 0.00 | 91 | 1014.4 |
| 20260509052032 | 51 | 0.0 | 0.0 | 0.00 | 0.00 | 0.00 | 90 | 1014.4 | |
| 20260509051039 | 51 | 173 | 0.0 | 0.9 | 0.00 | 0.00 | 0.00 | 92 | 1014.6 |
| 20260509050025 | 51 | 0.0 | 0.0 | 0.00 | 0.00 | 0.00 | 90 | 1014.7 | |
| 20260509045048 | 51 | 0.0 | 0.0 | 0.00 | 0.00 | 0.00 | 90 | 1014.7 | |
| 20260509044033 | 51 | 0.0 | 0.0 | 0.00 | 0.00 | 0.00 | 91 | 1014.8 | |
| 20260509043020 | 51 | 0.0 | 0.0 | 0.00 | 0.00 | 0.00 | 91 | 1014.9 | |
| 20260509042025 | 51 | 0.0 | 0.0 | 0.00 | 0.00 | 0.00 | 90 | 1014.9 | |
| 20260509041030 | 51 | 0.0 | 0.0 | 0.00 | 0.00 | 0.00 | 89 | 1014.9 | |
| 20260509040015 | 51 | 113 | 0.0 | 1.7 | 0.00 | 0.00 | 0.00 | 89 | 1014.9 |
| 20260509035101 | 51 | 0.0 | 0.0 | 0.00 | 0.00 | 0.00 | 88 | 1014.9 | |
| 20260509034024 | 52 | 0.0 | 1.7 | 0.00 | 0.00 | 0.00 | 87 | 1014.9 | |
| 20260509033030 | 52 | 315 | 0.0 | 1.7 | 0.00 | 0.00 | 0.00 | 85 | 1014.9 |
| 20260509032016 | 52 | 0.0 | 0.0 | 0.00 | 0.00 | 0.00 | 84 | 1015.3 | |
| 20260509031021 | 53 | 158 | 0.9 | 2.6 | 0.00 | 0.00 | 0.00 | 83 | 1015.3 |
| 20260509030025 | 53 | 0.0 | 0.0 | 0.00 | 0.00 | 0.00 | 83 | 1015.4 | |
| 20260509025030 | 53 | 0.0 | 0.0 | 0.00 | 0.00 | 0.00 | 83 | 1015.3 | |
| 20260509024038 | 53 | 0.0 | 0.0 | 0.00 | 0.00 | 0.00 | 82 | 1015.2 | |
| 20260509023021 | 53 | 343 | 0.9 | 0.9 | 0.00 | 0.00 | 0.00 | 82 | 1015.3 |
| 20260509022046 | 53 | 0.0 | 0.0 | 0.00 | 0.00 | 0.00 | 80 | 1015.4 | |
| 20260509021031 | 53 | 158 | 0.0 | 1.7 | 0.00 | 0.00 | 0.00 | 79 | 1015.2 |
| 20260509020017 | 54 | 189 | 0.9 | 1.7 | 0.00 | 0.00 | 0.00 | 81 | 1014.9 |
| 20260509015044 | 53 | 179 | 1.7 | 2.6 | 0.00 | 0.00 | 0.00 | 82 | 1014.8 |
| 20260509014027 | 54 | 34 | 0.9 | 1.7 | 0.00 | 0.00 | 0.00 | 80 | 1014.7 |
| 20260509013032 | 54 | 171 | 0.9 | 2.6 | 0.00 | 0.00 | 0.00 | 80 | 1014.7 |
| 20260509012019 | 54 | 0.0 | 0.0 | 0.00 | 0.00 | 0.00 | 79 | 1014.7 | |
| 20260509011023 | 55 | 184 | 1.7 | 1.7 | 0.00 | 0.00 | 0.00 | 79 | 1014.7 |
| 20260509010048 | 55 | 179 | 1.7 | 2.6 | 0.00 | 0.00 | 0.00 | 77 | 1014.9 |
| 20260509005015 | 55 | 169 | 1.7 | 1.7 | 0.00 | 0.00 | 0.00 | 75 | 1015.0 |
| 20260509004020 | 56 | 180 | 0.9 | 1.7 | 0.00 | 0.00 | 0.00 | 75 | 1015.0 |
| 20260509003044 | 56 | 0.0 | 0.0 | 0.00 | 0.00 | 0.00 | 71 | 1014.9 | |
| 20260509002030 | 57 | 0.0 | 0.0 | 0.00 | 0.00 | 0.00 | 68 | 1014.7 | |
| 20260509001016 | 58 | 180 | 0.0 | 1.7 | 0.00 | 0.00 | 0.00 | 66 | 1014.7 |
| 20260509000020 | 60 | 305 | 0.9 | 1.7 | 0.00 | 0.00 | 0.00 | 61 | 1014.7 |
| 20260508235025 | 61 | 243 | 1.7 | 2.6 | 0.00 | 0.00 | 0.00 | 60 | 1014.7 |
| 20260508234024 | 61 | 291 | 2.6 | 4.3 | 0.00 | 0.00 | 0.00 | 59 | 1014.6 |
| 20260508233017 | 63 | 292 | 2.6 | 3.5 | 0.00 | 0.00 | 0.00 | 58 | 1014.4 |
| 20260508232022 | 63 | 300 | 2.6 | 5.2 | 0.00 | 0.00 | 0.00 | 56 | 1014.2 |
| 20260508231021 | 62 | 270 | 2.6 | 5.2 | 0.00 | 0.00 | 0.00 | 58 | 1014.4 |
| 20260508230019 | 62 | 274 | 3.5 | 5.2 | 0.00 | 0.00 | 0.00 | 56 | 1014.7 |
| 20260508225018 | 62 | 264 | 7.0 | 12.2 | 0.00 | 0.00 | 0.00 | 56 | 1014.7 |
| 20260508224058 | 62 | 266 | 4.3 | 7.8 | 0.00 | 0.00 | 0.00 | 56 | 1014.7 |
| 20260508223035 | 62 | 260 | 5.2 | 7.8 | 0.00 | 0.00 | 0.00 | 56 | 1014.6 |
| 20260508222032 | 63 | 269 | 7.0 | 11.3 | 0.00 | 0.00 | 0.00 | 55 | 1014.5 |
| 20260508221020 | 63 | 259 | 8.7 | 13.0 | 0.00 | 0.00 | 0.00 | 54 | 1014.4 |
| 20260508220044 | 63 | 271 | 4.3 | 7.0 | 0.00 | 0.00 | 0.00 | 54 | 1014.4 |
| 20260508215029 | 63 | 269 | 3.5 | 6.1 | 0.00 | 0.00 | 0.00 | 53 | 1014.3 |
| 20260508214033 | 63 | 273 | 3.5 | 6.1 | 0.00 | 0.00 | 0.00 | 54 | 1014.3 |
| 20260508213021 | 63 | 272 | 2.6 | 5.2 | 0.00 | 0.00 | 0.00 | 54 | 1014.4 |
| 20260508212025 | 63 | 249 | 4.3 | 7.0 | 0.00 | 0.00 | 0.00 | 53 | 1014.4 |
| 20260508211029 | 63 | 256 | 4.3 | 7.0 | 0.00 | 0.00 | 0.00 | 52 | 1014.4 |
| 20260508210016 | 63 | 291 | 3.5 | 5.2 | 0.00 | 0.00 | 0.00 | 52 | 1014.2 |
| 20260508205020 | 63 | 246 | 3.5 | 5.2 | 0.00 | 0.00 | 0.00 | 51 | 1014.3 |
| 20260508204025 | 64 | 253 | 3.5 | 7.0 | 0.00 | 0.00 | 0.00 | 51 | 1014.4 |
| 20260508203030 | 64 | 268 | 4.3 | 7.0 | 0.00 | 0.00 | 0.00 | 49 | 1014.4 |
| 20260508202017 | 64 | 251 | 6.1 | 8.7 | 0.00 | 0.00 | 0.00 | 50 | 1014.4 |
| 20260508201022 | 64 | 220 | 5.2 | 10.4 | 0.00 | 0.00 | 0.00 | 50 | 1014.5 |
| 20260508200026 | 64 | 259 | 6.1 | 9.6 | 0.00 | 0.00 | 0.00 | 48 | 1014.4 |
| 20260508195031 | 64 | 253 | 5.2 | 10.4 | 0.00 | 0.00 | 0.00 | 48 | 1014.3 |
| 20260508194018 | 64 | 257 | 4.3 | 6.1 | 0.00 | 0.00 | 0.00 | 48 | 1014.3 |
| 20260508193023 | 64 | 256 | 7.8 | 13.9 | 0.00 | 0.00 | 0.00 | 48 | 1014.6 |
| 20260508192027 | 0 | 270 | 5.2 | 5.2 | 0.00 | 0.00 | 0.00 | 1014.4 | |
| 20260508191032 | 66 | 256 | 6.1 | 7.8 | 0.00 | 0.00 | 0.00 | 49 | 1014.6 |
| 20260508190019 | 67 | 246 | 6.1 | 9.6 | 0.00 | 0.00 | 0.00 | 45 | 1014.6 |
| 20260508185024 | 67 | 255 | 4.3 | 7.8 | 0.00 | 0.00 | 0.00 | 46 | 1014.7 |
| 20260508184028 | 69 | 250 | 7.8 | 14.8 | 0.00 | 0.00 | 0.00 | 45 | 1014.9 |
| 20260508183033 | 68 | 262 | 6.1 | 8.7 | 0.00 | 0.00 | 0.00 | 47 | 1015.1 |
| 20260508182019 | 67 | 255 | 5.2 | 8.7 | 0.00 | 0.00 | 0.00 | 50 | 1015.3 |
| 20260508181024 | 69 | 275 | 8.7 | 11.3 | 0.00 | 0.00 | 0.00 | 47 | 1015.3 |
| 20260508180030 | 68 | 263 | 8.7 | 13.0 | 0.00 | 0.00 | 0.00 | 50 | 1015.6 |
| 20260508175016 | 68 | 240 | 7.0 | 11.3 | 0.00 | 0.00 | 0.00 | 49 | 1015.6 |
| 20260508174041 | 66 | 260 | 5.2 | 7.8 | 0.00 | 0.00 | 0.00 | 50 | 1015.6 |
| 20260508173025 | 66 | 255 | 6.1 | 10.4 | 0.00 | 0.00 | 0.00 | 50 | 1015.8 |
| 20260508172051 | 66 | 259 | 8.7 | 10.4 | 0.00 | 0.00 | 0.00 | 49 | 1015.9 |
| 20260508171017 | 66 | 252 | 6.1 | 9.6 | 0.00 | 0.00 | 0.00 | 52 | 1016.3 |
| 20260508170022 | 64 | 238 | 7.0 | 11.3 | 0.00 | 0.00 | 0.00 | 52 | 1016.3 |
| 20260508165026 | 65 | 238 | 7.8 | 13.0 | 0.00 | 0.00 | 0.00 | 53 | 1016.4 |
| 20260508164032 | 62 | 234 | 7.8 | 8.7 | 0.00 | 0.00 | 0.00 | 54 | 1016.5 |
| 20260508163018 | 63 | 221 | 7.8 | 11.3 | 0.00 | 0.00 | 0.00 | 53 | 1016.4 |
| 20260508162022 | 62 | 261 | 6.1 | 11.3 | 0.00 | 0.00 | 0.00 | 55 | 1016.7 |
| 20260508161047 | 61 | 261 | 6.1 | 7.8 | 0.00 | 0.00 | 0.00 | 54 | 1016.9 |
| 20260508160046 | 60 | 251 | 7.0 | 9.6 | 0.00 | 0.00 | 0.00 | 55 | 1017.0 |
| 20260508155019 | 60 | 226 | 6.1 | 13.0 | 0.00 | 0.00 | 0.00 | 56 | 1016.9 |
| 20260508154024 | 63 | 249 | 7.8 | 11.3 | 0.00 | 0.00 | 0.00 | 52 | 1016.9 |
| 20260508153024 | 62 | 248 | 6.1 | 8.7 | 0.00 | 0.00 | 0.00 | 54 | 1016.8 |
| 20260508152015 | 63 | 259 | 9.6 | 13.0 | 0.00 | 0.00 | 0.00 | 52 | 1016.8 |
| 20260508151020 | 63 | 268 | 8.7 | 13.0 | 0.00 | 0.00 | 0.00 | 52 | 1016.8 |
| 20260508150019 | 62 | 240 | 7.8 | 11.3 | 0.00 | 0.00 | 0.00 | 54 | 1017.0 |
| 20260508145018 | 61 | 216 | 7.0 | 11.3 | 0.00 | 0.00 | 0.00 | 55 | 1017.1 |
| 20260508144016 | 61 | 257 | 7.0 | 11.3 | 0.00 | 0.00 | 0.00 | 55 | 1017.2 |
| 20260508143021 | 60 | 244 | 7.8 | 12.2 | 0.00 | 0.00 | 0.00 | 58 | 1017.2 |
| 20260508142046 | 59 | 229 | 6.1 | 8.7 | 0.00 | 0.00 | 0.00 | 63 | 1017.2 |
| 20260508141052 | 58 | 219 | 4.3 | 8.7 | 0.00 | 0.00 | 0.00 | 65 | 1017.3 |
| 20260508140017 | 57 | 225 | 7.0 | 10.4 | 0.00 | 0.00 | 0.00 | 64 | 1017.3 |
| 20260508135042 | 56 | 209 | 4.3 | 7.0 | 0.00 | 0.00 | 0.00 | 66 | 1017.3 |
| 20260508134026 | 55 | 210 | 6.1 | 10.4 | 0.00 | 0.00 | 0.00 | 67 | 1017.4 |
| 20260508133032 | 54 | 219 | 6.1 | 13.0 | 0.00 | 0.00 | 0.00 | 67 | 1017.6 |
| 20260508132058 | 54 | 266 | 6.1 | 8.7 | 0.00 | 0.00 | 0.00 | 67 | 1017.6 |
| 20260508131022 | 54 | 251 | 7.8 | 12.2 | 0.00 | 0.00 | 0.00 | 66 | 1017.8 |
| 20260508130027 | 54 | 225 | 6.1 | 9.6 | 0.00 | 0.00 | 0.00 | 66 | 1017.8 |
| 20260508125032 | 53 | 240 | 5.2 | 8.7 | 0.00 | 0.00 | 0.00 | 68 | 1017.8 |
| 20260508124022 | 53 | 203 | 5.2 | 7.0 | 0.00 | 0.00 | 0.00 | 67 | 1017.8 |
| 20260508123046 | 52 | 213 | 4.3 | 7.0 | 0.00 | 0.00 | 0.00 | 68 | 1017.8 |
| 20260508122050 | 51 | 241 | 3.5 | 6.1 | 0.00 | 0.00 | 0.00 | 68 | 1017.8 |
| 20260508121016 | 50 | 216 | 5.2 | 8.7 | 0.00 | 0.00 | 0.00 | 69 | 1017.6 |
| 20260508120040 | 49 | 244 | 3.5 | 5.2 | 0.00 | 0.00 | 0.00 | 72 | 1017.3 |
| 20260508115024 | 48 | 238 | 3.5 | 5.2 | 0.00 | 0.00 | 0.00 | 75 | 1017.3 |
| 20260508114029 | 44 | 233 | 1.7 | 3.5 | 0.00 | 0.00 | 0.00 | 83 | 1017.3 |
| 20260508113036 | 44 | 180 | 0.0 | 1.7 | 0.00 | 0.00 | 0.00 | 82 | 1017.2 |
| 20260508112021 | 41 | 177 | 0.9 | 1.7 | 0.00 | 0.00 | 0.00 | 85 | 1017.2 |
| 20260508111025 | 39 | 180 | 0.9 | 1.7 | 0.00 | 0.00 | 0.00 | 90 | 1017.3 |
| 20260508110152 | 37 | 206 | 0.0 | 1.7 | 0.00 | 0.00 | 0.00 | 96 | 1017.0 |